AVA9401 SKBO-SKPS

Flight info

Callsign AVA9401
Flight time 0h 46m
Altitude 33000
Route VAPOM4R VAPOM DCT OREGA DCT PPN DCT MER
Aircraft A319/M-SDE3FGHIRWY/LB1

Departure

Time 2026-05-07 21:42
Airport El Dorado International Airport (SKBO)

Arrival

Time 2026-05-07 22:28
Airport Antonio Nariño Airport (SKPS)
Time Latitude Longitude Altitude Speed Heading
2026-05-07 21:14 4.69902 -74.14508 8373 ft 0 kts 212°
2026-05-07 21:29 4.69918 -74.14497 8373 ft 3 kts 213°
2026-05-07 21:29 4.69936 -74.14486 8373 ft 3 kts 219°
2026-05-07 21:29 4.69948 -74.14469 8373 ft 3 kts 270°
2026-05-07 21:30 4.69943 -74.14446 8371 ft 3 kts 297°
2026-05-07 21:30 4.69932 -74.14429 8373 ft 2 kts 307°
2026-05-07 21:30 4.69945 -74.14446 8373 ft 3 kts 307°
2026-05-07 21:30 4.69960 -74.14465 8371 ft 3 kts 307°
2026-05-07 21:31 4.69965 -74.14472 8373 ft 0 kts 307°
2026-05-07 21:33 4.69966 -74.14473 8373 ft 1 kts 307°
2026-05-07 21:33 4.69984 -74.14497 8371 ft 8 kts 307°
2026-05-07 21:33 4.70020 -74.14545 8371 ft 9 kts 307°
2026-05-07 21:34 4.70061 -74.14588 8373 ft 9 kts 339°
2026-05-07 21:34 4.70112 -74.14629 8372 ft 11 kts 319°
2026-05-07 21:34 4.70158 -74.14706 8373 ft 15 kts 252°
2026-05-07 21:34 4.70082 -74.14774 8373 ft 15 kts 217°
2026-05-07 21:35 4.69994 -74.14840 8373 ft 16 kts 217°
2026-05-07 21:35 4.69901 -74.14911 8372 ft 17 kts 218°
2026-05-07 21:35 4.69862 -74.14985 8373 ft 13 kts 305°
2026-05-07 21:35 4.69917 -74.15060 8373 ft 14 kts 307°
2026-05-07 21:36 4.69979 -74.15138 8373 ft 15 kts 307°
2026-05-07 21:36 4.70042 -74.15223 8370 ft 16 kts 307°
2026-05-07 21:36 4.70111 -74.15313 8373 ft 17 kts 307°
2026-05-07 21:36 4.70184 -74.15409 8372 ft 18 kts 307°
2026-05-07 21:37 4.70260 -74.15509 8373 ft 18 kts 307°
2026-05-07 21:37 4.70339 -74.15614 8373 ft 19 kts 307°
2026-05-07 21:37 4.70420 -74.15723 8373 ft 20 kts 307°
2026-05-07 21:37 4.70505 -74.15834 8373 ft 20 kts 307°
2026-05-07 21:38 4.70593 -74.15949 8373 ft 21 kts 307°
2026-05-07 21:38 4.70682 -74.16067 8373 ft 21 kts 307°
2026-05-07 21:38 4.70773 -74.16187 8373 ft 22 kts 307°
2026-05-07 21:38 4.70866 -74.16310 8374 ft 22 kts 307°
2026-05-07 21:39 4.70962 -74.16436 8373 ft 23 kts 307°
2026-05-07 21:39 4.71059 -74.16564 8372 ft 23 kts 307°
2026-05-07 21:39 4.71158 -74.16695 8373 ft 24 kts 306°
2026-05-07 21:39 4.71203 -74.16788 8373 ft 11 kts 238°
2026-05-07 21:40 4.71141 -74.16839 8372 ft 12 kts 217°
2026-05-07 21:40 4.71065 -74.16893 8373 ft 14 kts 210°
2026-05-07 21:40 4.71004 -74.16848 8371 ft 12 kts 128°
2026-05-07 21:40 4.70998 -74.16840 8373 ft 3 kts 127°
2026-05-07 21:41 4.70859 -74.16657 8373 ft 69 kts 127°
2026-05-07 21:41 4.70441 -74.16105 8374 ft 128 kts 127°
2026-05-07 21:41 4.69805 -74.15265 8376 ft 176 kts 127°
2026-05-07 21:41 4.69032 -74.14258 8851 ft 183 kts 127°
2026-05-07 21:42 4.68196 -74.13278 9486 ft 187 kts 140°
2026-05-07 21:42 4.66956 -74.12942 10075 ft 192 kts 190°
2026-05-07 21:42 4.65766 -74.13583 10482 ft 206 kts 229°
2026-05-07 21:42 4.64969 -74.14861 10712 ft 228 kts 241°
2026-05-07 21:43 4.64150 -74.16302 11004 ft 246 kts 240°
2026-05-07 21:43 4.63282 -74.17814 11596 ft 253 kts 240°
2026-05-07 21:43 4.62397 -74.19342 12422 ft 254 kts 240°
2026-05-07 21:43 4.61571 -74.20925 13235 ft 258 kts 252°
2026-05-07 21:44 4.61143 -74.22722 13662 ft 280 kts 259°
2026-05-07 21:44 4.60752 -74.24723 14008 ft 304 kts 259°
2026-05-07 21:44 4.60333 -74.26855 14546 ft 318 kts 256°
2026-05-07 21:44 4.59478 -74.28922 15286 ft 323 kts 243°
2026-05-07 21:45 4.58453 -74.30952 16042 ft 328 kts 243°
2026-05-07 21:45 4.57418 -74.32978 16771 ft 332 kts 242°
2026-05-07 21:45 4.56348 -74.35058 17524 ft 336 kts 242°
2026-05-07 21:45 4.55265 -74.37166 18234 ft 341 kts 242°
2026-05-07 21:46 4.54164 -74.39313 18686 ft 355 kts 242°
2026-05-07 21:46 4.53012 -74.41561 18817 ft 377 kts 242°
2026-05-07 21:46 4.51782 -74.43960 18943 ft 397 kts 242°
2026-05-07 21:46 4.50498 -74.46466 19297 ft 409 kts 242°
2026-05-07 21:47 4.49191 -74.49024 19856 ft 414 kts 242°
2026-05-07 21:47 4.48315 -74.50737 20256 ft 417 kts 242°
2026-05-07 21:47 4.46982 -74.53339 20842 ft 421 kts 242°
2026-05-07 21:47 4.45631 -74.55969 21398 ft 424 kts 242°
2026-05-07 21:48 4.43830 -74.59475 22086 ft 429 kts 242°
2026-05-07 21:48 4.42922 -74.61246 22421 ft 432 kts 242°
2026-05-07 21:48 4.41545 -74.63939 22906 ft 435 kts 242°
2026-05-07 21:48 4.40159 -74.66653 23384 ft 438 kts 242°
2026-05-07 21:49 4.38756 -74.69391 23833 ft 441 kts 242°
2026-05-07 21:49 4.37354 -74.72111 24265 ft 445 kts 242°
2026-05-07 21:49 4.35927 -74.74872 24698 ft 447 kts 242°
2026-05-07 21:49 4.34490 -74.77653 25142 ft 450 kts 242°
2026-05-07 21:50 4.33051 -74.80449 25563 ft 452 kts 242°
2026-05-07 21:50 4.31602 -74.83267 25990 ft 454 kts 242°
2026-05-07 21:50 4.30151 -74.86088 26406 ft 457 kts 242°
2026-05-07 21:50 4.28692 -74.88926 26822 ft 459 kts 242°
2026-05-07 21:51 4.27227 -74.91770 27226 ft 461 kts 242°
2026-05-07 21:51 4.25772 -74.94594 27620 ft 463 kts 241°
2026-05-07 21:51 4.24286 -74.97466 27995 ft 465 kts 241°
2026-05-07 21:51 4.22792 -75.00357 28370 ft 467 kts 241°
2026-05-07 21:52 4.21290 -75.03260 28741 ft 468 kts 240°
2026-05-07 21:52 4.19558 -75.05991 29092 ft 469 kts 232°
2026-05-07 21:52 4.17587 -75.08619 29451 ft 471 kts 232°
2026-05-07 21:52 4.15615 -75.11250 29805 ft 473 kts 232°
2026-05-07 21:53 4.13636 -75.13899 30150 ft 475 kts 232°
2026-05-07 21:53 4.11679 -75.16514 30575 ft 474 kts 232°
2026-05-07 21:53 4.09706 -75.19151 31069 ft 472 kts 232°
2026-05-07 21:53 4.07736 -75.21784 31562 ft 470 kts 232°
2026-05-07 21:54 4.05775 -75.24406 32063 ft 468 kts 232°
2026-05-07 21:54 4.03832 -75.27010 32571 ft 465 kts 233°
2026-05-07 21:54 4.01913 -75.29581 32871 ft 464 kts 233°
2026-05-07 21:54 3.99983 -75.32162 32941 ft 460 kts 233°
2026-05-07 21:55 3.96150 -75.37272 32956 ft 456 kts 232°
2026-05-07 21:55 3.92335 -75.42349 32957 ft 456 kts 233°
2026-05-07 21:56 3.88543 -75.47399 32951 ft 456 kts 233°
2026-05-07 21:56 3.84073 -75.51872 32951 ft 455 kts 218°
2026-05-07 21:57 3.79115 -75.55777 32950 ft 455 kts 218°
2026-05-07 21:57 3.74131 -75.59704 32948 ft 455 kts 218°
2026-05-07 21:58 3.69146 -75.63635 32947 ft 455 kts 218°
2026-05-07 21:58 3.64196 -75.67537 32941 ft 455 kts 218°
2026-05-07 21:59 3.59219 -75.71455 32941 ft 455 kts 218°
2026-05-07 21:59 3.54228 -75.75380 32938 ft 455 kts 218°
2026-05-07 22:00 3.49244 -75.79307 32935 ft 455 kts 218°
2026-05-07 22:00 3.44294 -75.83207 32937 ft 455 kts 218°
2026-05-07 22:01 3.39319 -75.87129 32937 ft 455 kts 218°
2026-05-07 22:01 3.34340 -75.91051 32934 ft 455 kts 218°
2026-05-07 22:02 3.29660 -75.94737 32940 ft 455 kts 218°
2026-05-07 22:02 3.24704 -75.98635 32944 ft 454 kts 218°
2026-05-07 22:03 3.19741 -76.02540 32944 ft 454 kts 218°
2026-05-07 22:03 3.14770 -76.06454 32959 ft 454 kts 218°
2026-05-07 22:04 3.09796 -76.10369 32956 ft 455 kts 218°
2026-05-07 22:04 3.04820 -76.14282 32958 ft 455 kts 218°
2026-05-07 22:05 2.99839 -76.18198 32962 ft 455 kts 218°
2026-05-07 22:05 2.94897 -76.22088 32971 ft 455 kts 218°
2026-05-07 22:06 2.89914 -76.26011 32973 ft 455 kts 218°
2026-05-07 22:06 2.84937 -76.29924 32990 ft 455 kts 218°
2026-05-07 22:07 2.79963 -76.33835 33009 ft 454 kts 218°
2026-05-07 22:07 2.74996 -76.37746 33034 ft 455 kts 218°
2026-05-07 22:08 2.70015 -76.41671 33046 ft 455 kts 218°
2026-05-07 22:08 2.65028 -76.45588 32827 ft 456 kts 218°
2026-05-07 22:09 2.62565 -76.47519 32583 ft 456 kts 217°
2026-05-07 22:09 2.60068 -76.49477 32333 ft 457 kts 218°
2026-05-07 22:09 2.57558 -76.51448 32080 ft 457 kts 218°
2026-05-07 22:09 2.55055 -76.53414 31829 ft 459 kts 217°
2026-05-07 22:10 2.52533 -76.55395 31577 ft 460 kts 217°
2026-05-07 22:10 2.50006 -76.57378 31325 ft 461 kts 217°
2026-05-07 22:10 2.47508 -76.59342 31083 ft 463 kts 217°
2026-05-07 22:10 2.44977 -76.61338 30830 ft 464 kts 217°
2026-05-07 22:11 2.42447 -76.63356 30579 ft 465 kts 218°
2026-05-07 22:11 2.39925 -76.65403 30329 ft 467 kts 218°
2026-05-07 22:11 2.37406 -76.67468 29998 ft 467 kts 218°
2026-05-07 22:11 2.34909 -76.69521 28843 ft 472 kts 218°
2026-05-07 22:12 2.32326 -76.71643 27564 ft 478 kts 218°
2026-05-07 22:12 2.29772 -76.73733 26307 ft 483 kts 218°
2026-05-07 22:12 2.27160 -76.75864 25272 ft 482 kts 218°
2026-05-07 22:12 2.24568 -76.77974 24409 ft 477 kts 218°
2026-05-07 22:13 2.22006 -76.80057 23553 ft 472 kts 218°
2026-05-07 22:13 2.19456 -76.82130 22723 ft 467 kts 218°
2026-05-07 22:13 2.16976 -76.84145 21937 ft 463 kts 218°
2026-05-07 22:13 2.14479 -76.86176 21186 ft 457 kts 218°
2026-05-07 22:14 2.12014 -76.88188 20435 ft 453 kts 218°
2026-05-07 22:14 2.09609 -76.90148 19741 ft 447 kts 218°
2026-05-07 22:14 2.07202 -76.92106 19065 ft 442 kts 218°
2026-05-07 22:14 2.04826 -76.94040 18443 ft 437 kts 218°
2026-05-07 22:15 2.02475 -76.95954 17825 ft 432 kts 218°
2026-05-07 22:15 2.00185 -76.97818 17228 ft 428 kts 218°
2026-05-07 22:15 1.97890 -76.99683 16886 ft 418 kts 218°
2026-05-07 22:15 1.95675 -77.01483 16758 ft 403 kts 218°
2026-05-07 22:16 1.93530 -77.03224 16631 ft 389 kts 218°
2026-05-07 22:16 1.91459 -77.04907 16503 ft 376 kts 218°
2026-05-07 22:16 1.89466 -77.06533 16369 ft 361 kts 218°
2026-05-07 22:16 1.87573 -77.08078 16200 ft 342 kts 218°
2026-05-07 22:17 1.85751 -77.09565 15804 ft 336 kts 218°
2026-05-07 22:17 1.83969 -77.11015 15500 ft 333 kts 218°
2026-05-07 22:17 1.82177 -77.12471 15111 ft 326 kts 218°
2026-05-07 22:17 1.80455 -77.13872 14957 ft 311 kts 218°
2026-05-07 22:18 1.78766 -77.15181 14592 ft 304 kts 211°
2026-05-07 22:18 1.75097 -77.17168 13693 ft 297 kts 206°
2026-05-07 22:18 1.73283 -77.18136 13268 ft 293 kts 207°
2026-05-07 22:19 1.71502 -77.19090 12972 ft 289 kts 207°
2026-05-07 22:19 1.69730 -77.20038 12710 ft 287 kts 207°
2026-05-07 22:19 1.67993 -77.20968 12465 ft 287 kts 207°
2026-05-07 22:19 1.66231 -77.21911 12191 ft 286 kts 207°
2026-05-07 22:20 1.64482 -77.22849 11925 ft 284 kts 207°
2026-05-07 22:20 1.62744 -77.23780 11668 ft 282 kts 207°
2026-05-07 22:20 1.61017 -77.24701 11426 ft 281 kts 207°
2026-05-07 22:20 1.59294 -77.25621 11159 ft 280 kts 207°
2026-05-07 22:21 1.57578 -77.26540 10893 ft 279 kts 207°
2026-05-07 22:21 1.55863 -77.27459 10570 ft 279 kts 208°
2026-05-07 22:21 1.54178 -77.28361 10320 ft 277 kts 208°
2026-05-07 22:21 1.52474 -77.29270 10061 ft 276 kts 207°
2026-05-07 22:22 1.50773 -77.30144 9804 ft 274 kts 206°
2026-05-07 22:22 1.49082 -77.30988 9548 ft 268 kts 206°
2026-05-07 22:22 1.47441 -77.31800 9312 ft 257 kts 206°
2026-05-07 22:22 1.45890 -77.32567 9073 ft 246 kts 207°
2026-05-07 22:23 1.44392 -77.33312 8878 ft 234 kts 207°
2026-05-07 22:23 1.42942 -77.34036 8805 ft 231 kts 207°
2026-05-07 22:23 1.41537 -77.34741 8808 ft 220 kts 207°
2026-05-07 22:23 1.40208 -77.35408 8817 ft 206 kts 207°
2026-05-07 22:24 1.38981 -77.36022 8800 ft 192 kts 208°
2026-05-07 22:24 1.37764 -77.36483 8654 ft 186 kts 191°
2026-05-07 22:24 1.36488 -77.36461 8368 ft 182 kts 168°
2026-05-07 22:24 1.35367 -77.35992 8108 ft 169 kts 148°
2026-05-07 22:25 1.34547 -77.35239 7870 ft 158 kts 128°
2026-05-07 22:25 1.34035 -77.34294 7655 ft 153 kts 109°
2026-05-07 22:25 1.33851 -77.33256 7440 ft 150 kts 90°
2026-05-07 22:25 1.33991 -77.32240 7235 ft 149 kts 72°
2026-05-07 22:26 1.34432 -77.31314 6998 ft 147 kts 54°
2026-05-07 22:26 1.35129 -77.30576 6818 ft 145 kts 35°
2026-05-07 22:26 1.36003 -77.30084 6616 ft 144 kts 20°
2026-05-07 22:26 1.36966 -77.29813 6386 ft 143 kts 13°
2026-05-07 22:27 1.37916 -77.29562 6147 ft 143 kts 13°
2026-05-07 22:27 1.38872 -77.29307 5949 ft 141 kts 14°
2026-05-07 22:27 1.39668 -77.29098 5904 ft 81 kts 14°
2026-05-07 22:27 1.40056 -77.28993 5883 ft 52 kts 15°
2026-05-07 22:28 1.40398 -77.28902 5875 ft 51 kts 15°
2026-05-07 22:28 1.40614 -77.28865 5853 ft 18 kts 17°
2026-05-07 22:28 1.40618 -77.28839 5852 ft 3 kts 176°
2026-05-07 22:28 1.40548 -77.28860 5864 ft 15 kts 197°
2026-05-07 22:29 1.40429 -77.28888 5868 ft 22 kts 195°
2026-05-07 22:29 1.40224 -77.28946 5883 ft 30 kts 196°
2026-05-07 22:29 1.40038 -77.28997 5892 ft 26 kts 195°
2026-05-07 22:29 1.39873 -77.29040 5893 ft 23 kts 195°
2026-05-07 22:30 1.39731 -77.29077 5901 ft 20 kts 194°
2026-05-07 22:30 1.39663 -77.29033 5904 ft 13 kts 111°
2026-05-07 22:30 1.39622 -77.29023 5906 ft 5 kts 196°
2026-05-07 22:30 1.39590 -77.29030 5908 ft 4 kts 173°
2026-05-07 22:31 1.39579 -77.29006 5908 ft 3 kts 105°
2026-05-07 22:31 1.39574 -77.28990 5908 ft 0 kts 105°